Find Starlink 31142

NORAD ID: 58779 Int'l Des: 2024-011 Owner: SPXS Country: US Constellation: starlink operational
LEOCIRCULAR

Live-Position

3D-Globus wird geladen...

Über Starlink 31142

Beschreibung wird geladen...

Nächste Überflüge

Passes for default location (London). Set your location on the main map for personalized predictions.

Höhenverlauf

Loading altitude history...

Zweizeiliger Elementsatz

1 58779U 24011Q 26123.26739935 -.00001732 00000-0 -46352-4 0 9991
2 58779 53.1605 120.3541 0001337 87.5740 272.5414 15.30199880128627
Epoch: 3. Mai 2026 • Age: 19 hours

Aktueller Status

Höhe 476.8 km
Geschwindigkeit 7.63 km/s
Subsatellitenpunkt 33.22°N, 18.07°E
Startdatum 14. Jan. 2024
Alter 2.2 years
Typ internet

Technische Details

Klassifizierung Payload
Masse 730.00 kg
Trockenmasse 700.00 kg
Gesamtmasse 730.00 kg
Länge 0.30 m
Durchmesser 4.10 m
Spannweite 29.00 m
Form Box + pan
Hersteller SPXS
Bus-Typ Starlink V2M
Phasenstatus In Orbit
Besitzer/Staat SPXS/US

Most Searched